| time (UTC) | temp C | wind direction | speed KPH | gust KPH | rain 1hr cm | rain 24hr cm | rain mn cm | humidity % | barometer mb |
| 20260508023003 | 7 | 20 | 9.7 | 1319.7 | 0.00 | 0.00 | 0.00 | 7 | 1011.6 |
| 20260508022003 | 7 | 20 | 9.7 | 820.8 | 0.00 | 0.00 | 0.00 | 7 | 1011.7 |
| 20260508021003 | 8 | 14 | 9.7 | 820.8 | 0.00 | 0.00 | 0.00 | 8 | 1011.6 |
| 20260508020005 | 8 | 14 | 9.7 | 510.2 | 0.00 | 0.00 | 0.00 | 8 | 1011.6 |
| 20260508015003 | 8 | 14 | 9.7 | 510.2 | 0.00 | 0.00 | 0.00 | 8 | 1011.6 |
| 20260508014003 | 8 | 14 | 9.7 | 317.0 | 0.00 | 0.00 | 0.00 | 8 | 1011.6 |
| 20260508013003 | 8 | 14 | 9.7 | 317.0 | 0.00 | 0.00 | 0.00 | 8 | 1011.6 |
| 20260508012003 | 8 | 14 | 9.7 | 197.9 | 0.00 | 0.00 | 0.00 | 8 | 1011.6 |
| 20260508011003 | 8 | 12 | 8.0 | 197.9 | 0.00 | 0.00 | 0.00 | 8 | 1011.6 |
| 20260508010003 | 8 | 12 | 8.0 | 123.9 | 0.00 | 0.00 | 0.00 | 8 | 1011.8 |
| 20260508005003 | 8 | 12 | 8.0 | 123.9 | 0.00 | 0.00 | 0.00 | 8 | 1011.6 |
| 20260508004002 | 8 | 12 | 8.0 | 77.2 | 0.00 | 0.00 | 0.00 | 8 | 1011.7 |
| 20260508003005 | 8 | 12 | 8.0 | 77.2 | 0.00 | 0.00 | 0.00 | 8 | 1011.7 |
| 20260508002002 | 8 | 354 | 8.0 | 48.3 | 0.00 | 0.00 | 0.00 | 8 | 1011.6 |
| 20260508001004 | 8 | 354 | 8.0 | 48.3 | 0.00 | 0.00 | 0.00 | 8 | 1011.7 |
| 20260508000003 | 8 | 354 | 8.0 | 30.6 | 0.00 | 0.00 | 0.00 | 8 | 1011.7 |
| 20260507235003 | 8 | 354 | 8.0 | 30.6 | 0.00 | 0.00 | 0.00 | 8 | 1011.7 |
| 20260507234003 | 8 | 354 | 8.0 | 225.3 | 0.00 | 0.00 | 0.00 | 8 | 1011.5 |
| 20260507233002 | 8 | 354 | 8.0 | 225.3 | 0.00 | 0.00 | 0.00 | 8 | 1011.5 |
| 20260507232002 | 8 | 345 | 8.0 | 225.3 | 0.00 | 0.00 | 0.00 | 8 | 1011.5 |
| 20260507231003 | 8 | 345 | 8.0 | 225.3 | 0.00 | 0.00 | 0.00 | 8 | 1011.6 |
| 20260507230003 | 8 | 345 | 8.0 | 225.3 | 0.00 | 0.00 | 0.00 | 8 | 1011.5 |
| 20260507225004 | 8 | 345 | 8.0 | 225.3 | 0.00 | 0.00 | 0.00 | 8 | 1011.5 |
| 20260507224003 | 8 | 345 | 8.0 | 225.3 | 0.00 | 0.00 | 0.00 | 8 | 1011.6 |
| 20260507223003 | 8 | 345 | 8.0 | 225.3 | 0.00 | 0.00 | 0.00 | 8 | 1011.6 |
| 20260507222003 | 8 | 336 | 8.0 | 1403.3 | 0.00 | 0.00 | 0.00 | 8 | 1011.7 |
| 20260507221003 | 8 | 336 | 8.0 | 1403.3 | 0.00 | 0.00 | 0.00 | 8 | 1011.4 |
| 20260507220003 | 8 | 336 | 8.0 | 872.3 | 0.00 | 0.00 | 0.00 | 8 | 1011.4 |
| 20260507215004 | 8 | 336 | 8.0 | 872.3 | 0.00 | 0.00 | 0.00 | 8 | 1011.3 |
| 20260507214003 | 8 | 336 | 8.0 | 542.3 | 0.00 | 0.00 | 0.00 | 8 | 1011.5 |
| 20260507213003 | 8 | 336 | 8.0 | 338.0 | 0.00 | 0.00 | 0.00 | 8 | 1011.3 |
| 20260507210002 | 9 | 341 | 8.0 | 210.8 | 0.00 | 0.00 | 0.00 | 8 | 1011.1 |
| 20260507205004 | 9 | 341 | 8.0 | 210.8 | 0.00 | 0.00 | 0.00 | 8 | 1011.0 |
| 20260507204018 | 9 | 341 | 8.0 | 132.0 | 0.00 | 0.00 | 0.00 | 8 | 1011.0 |
| 20260507203002 | 9 | 341 | 8.0 | 132.0 | 0.00 | 0.00 | 0.00 | 8 | 1010.8 |
| 20260507201002 | 10 | 9 | 8.0 | 82.1 | 0.00 | 0.00 | 0.00 | 7 | 1010.5 |
| 20260507200002 | 10 | 9 | 8.0 | 82.1 | 0.00 | 0.00 | 0.00 | 7 | 1010.5 |
| 20260507195002 | 10 | 9 | 8.0 | 51.5 | 0.00 | 0.00 | 0.00 | 7 | 1010.6 |
| 20260507194004 | 10 | 9 | 8.0 | 32.2 | 0.00 | 0.00 | 0.00 | 7 | 1010.4 |
| 20260507193002 | 10 | 9 | 8.0 | 32.2 | 0.00 | 0.00 | 0.00 | 7 | 1010.4 |
| 20260507192002 | 10 | 9 | 8.0 | 191.5 | 0.00 | 0.00 | 0.00 | 7 | 1010.3 |
| 20260507191003 | 10 | 359 | 9.7 | 191.5 | 0.00 | 0.00 | 0.00 | 7 | 1010.1 |
| 20260507190004 | 10 | 359 | 9.7 | 191.5 | 0.00 | 0.00 | 0.00 | 7 | 1010.2 |
| 20260507185002 | 10 | 359 | 9.7 | 191.5 | 0.00 | 0.00 | 0.00 | 7 | 1010.2 |
| 20260507184002 | 10 | 359 | 9.7 | 191.5 | 0.00 | 0.00 | 0.00 | 7 | 1010.1 |
| 20260507183002 | 10 | 359 | 9.7 | 191.5 | 0.00 | 0.00 | 0.00 | 7 | 1010.3 |
| 20260507182002 | 10 | 359 | 9.7 | 191.5 | 0.00 | 0.00 | 0.00 | 7 | 1010.0 |
| 20260507181002 | 11 | 3 | 11.3 | 1190.9 | 0.00 | 0.00 | 0.00 | 7 | 1009.8 |
| 20260507180002 | 11 | 3 | 11.3 | 740.3 | 0.00 | 0.00 | 0.00 | 7 | 1009.6 |
| 20260507175002 | 11 | 3 | 11.3 | 740.3 | 0.00 | 0.00 | 0.00 | 7 | 1009.7 |
| 20260507174002 | 11 | 3 | 11.3 | 460.3 | 0.00 | 0.00 | 0.00 | 7 | 1009.4 |
| 20260507173002 | 11 | 3 | 11.3 | 460.3 | 0.00 | 0.00 | 0.00 | 7 | 1009.4 |
| 20260507172003 | 11 | 3 | 11.3 | 286.5 | 0.00 | 0.00 | 0.00 | 7 | 1009.0 |
| 20260507171003 | 11 | 8 | 11.3 | 178.6 | 0.00 | 0.00 | 0.00 | 7 | 1008.9 |
| 20260507170004 | 11 | 8 | 11.3 | 178.6 | 0.00 | 0.00 | 0.00 | 7 | 1008.8 |
| 20260507165002 | 11 | 8 | 11.3 | 111.0 | 0.00 | 0.00 | 0.00 | 7 | 1008.7 |
| 20260507164003 | 11 | 14 | 11.3 | 69.2 | 0.00 | 0.00 | 0.00 | 7 | 1008.5 |
| 20260507163003 | 11 | 14 | 11.3 | 43.5 | 0.00 | 0.00 | 0.00 | 7 | 1008.5 |
| 20260507162004 | 11 | 14 | 11.3 | 27.4 | 0.00 | 0.00 | 0.00 | 7 | 1008.6 |
| 20260507161002 | 11 | 14 | 11.3 | 27.4 | 0.00 | 0.00 | 0.00 | 7 | 1008.5 |
| 20260507160002 | 11 | 14 | 11.3 | 175.4 | 0.00 | 0.00 | 0.00 | 7 | 1008.6 |
| 20260507155004 | 11 | 14 | 11.3 | 175.4 | 0.00 | 0.00 | 0.00 | 7 | 1008.6 |
| 20260507154003 | 11 | 21 | 9.7 | 175.4 | 0.00 | 0.00 | 0.00 | 7 | 1008.6 |
| 20260507153002 | 11 | 21 | 9.7 | 175.4 | 0.00 | 0.00 | 0.00 | 7 | 1008.8 |
| 20260507152003 | 11 | 21 | 9.7 | 175.4 | 0.00 | 0.00 | 0.00 | 7 | 1008.7 |
| 20260507151003 | 11 | 21 | 9.7 | 175.4 | 0.00 | 0.00 | 0.00 | 7 | 1008.5 |
| 20260507150002 | 11 | 21 | 9.7 | 175.4 | 0.00 | 0.00 | 0.00 | 7 | 1008.5 |
| 20260507145003 | 11 | 21 | 9.7 | 175.4 | 0.00 | 0.00 | 0.00 | 7 | 1008.3 |
| 20260507144001 | 11 | 22 | 11.3 | 1094.4 | 0.00 | 0.00 | 0.00 | 8 | 1008.5 |
| 20260507143002 | 11 | 22 | 11.3 | 680.8 | 0.00 | 0.00 | 0.00 | 8 | 1008.5 |
| 20260507142002 | 11 | 22 | 11.3 | 423.3 | 0.00 | 0.00 | 0.00 | 8 | 1008.4 |
| 20260507141002 | 11 | 22 | 11.3 | 263.9 | 0.00 | 0.00 | 0.00 | 8 | 1008.6 |
| 20260507140002 | 11 | 22 | 11.3 | 164.2 | 0.00 | 0.00 | 0.00 | 8 | 1008.6 |
| 20260507135003 | 11 | 22 | 11.3 | 164.2 | 0.00 | 0.00 | 0.00 | 8 | 1008.5 |
| 20260507134002 | 11 | 22 | 11.3 | 103.0 | 0.00 | 0.00 | 0.00 | 8 | 1008.6 |
| 20260507133002 | 10 | 8 | 12.9 | 64.4 | 0.00 | 0.00 | 0.00 | 8 | 1008.4 |
| 20260507132002 | 10 | 8 | 12.9 | 40.2 | 0.00 | 0.00 | 0.00 | 8 | 1008.3 |
| 20260507131002 | 10 | 8 | 12.9 | 40.2 | 0.00 | 0.00 | 0.00 | 8 | 1008.1 |
| 20260507130003 | 10 | 8 | 12.9 | 25.7 | 0.00 | 0.00 | 0.00 | 8 | 1008.1 |
| 20260507125002 | 10 | 8 | 12.9 | 25.7 | 0.00 | 0.00 | 0.00 | 8 | 1008.0 |
| 20260507124002 | 10 | 8 | 12.9 | 16.1 | 0.00 | 0.00 | 0.00 | 8 | 1008.0 |
| 20260507123002 | 9 | 11 | 12.9 | 16.1 | 0.00 | 0.00 | 0.00 | 8 | 1008.0 |
| 20260507122002 | 9 | 11 | 12.9 | 16.1 | 0.00 | 0.00 | 0.00 | 8 | 1007.8 |
| 20260507121002 | 9 | 11 | 12.9 | 175.4 | 0.00 | 0.00 | 0.00 | 8 | 1007.7 |
| 20260507120002 | 9 | 11 | 12.9 | 175.4 | 0.00 | 0.00 | 0.00 | 8 | 1007.8 |
| 20260507115003 | 9 | 11 | 12.9 | 175.4 | 0.00 | 0.00 | 0.00 | 8 | 1007.8 |
| 20260507114002 | 9 | 11 | 12.9 | 175.4 | 0.00 | 0.00 | 0.00 | 8 | 1007.8 |
| 20260507113002 | 9 | 17 | 12.9 | 175.4 | 0.00 | 0.00 | 0.00 | 8 | 1007.7 |
| 20260507112002 | 9 | 17 | 12.9 | 175.4 | 0.00 | 0.00 | 0.00 | 8 | 1007.7 |
| 20260507111003 | 9 | 17 | 12.9 | 175.4 | 0.00 | 0.00 | 0.00 | 8 | 1007.5 |
| 20260507110002 | 9 | 17 | 12.9 | 1094.4 | 0.00 | 0.00 | 0.00 | 8 | 1007.5 |
| 20260507105003 | 9 | 17 | 12.9 | 1094.4 | 0.00 | 0.00 | 0.00 | 8 | 1007.3 |
| 20260507104004 | 9 | 17 | 12.9 | 680.8 | 0.00 | 0.00 | 0.00 | 8 | 1007.0 |
| 20260507103001 | 8 | 18 | 11.3 | 680.8 | 0.00 | 0.00 | 0.00 | 9 | 1007.0 |
| 20260507102006 | 8 | 18 | 11.3 | 423.3 | 0.00 | 0.00 | 0.00 | 9 | 1006.9 |
| 20260507101002 | 8 | 18 | 11.3 | 423.3 | 0.00 | 0.00 | 0.00 | 9 | 1006.8 |
| 20260507100003 | 8 | 18 | 11.3 | 263.9 | 0.00 | 0.00 | 0.00 | 9 | 1006.9 |
| 20260507095003 | 8 | 18 | 11.3 | 164.2 | 0.00 | 0.00 | 0.00 | 9 | 1006.8 |
| 20260507094002 | 8 | 18 | 11.3 | 103.0 | 0.00 | 0.00 | 0.00 | 9 | 1006.6 |
| 20260507093002 | 8 | 18 | 11.3 | 64.4 | 0.00 | 0.00 | 0.00 | 9 | 1006.4 |
| 20260507092003 | 8 | 18 | 11.3 | 40.2 | 0.00 | 0.00 | 0.00 | 9 | 1006.7 |
| 20260507091003 | 8 | 18 | 11.3 | 40.2 | 0.00 | 0.00 | 0.00 | 9 | 1006.5 |
| 20260507090002 | 8 | 18 | 11.3 | 25.7 | 0.00 | 0.00 | 0.00 | 9 | 1006.2 |
| 20260507085002 | 8 | 18 | 11.3 | 25.7 | 0.00 | 0.00 | 0.00 | 9 | 1006.1 |
| 20260507084002 | 8 | 18 | 11.3 | 16.1 | 0.00 | 0.00 | 0.00 | 9 | 1005.9 |
| 20260507083002 | 8 | 18 | 11.3 | 233.4 | 0.00 | 0.00 | 0.00 | 9 | 1005.7 |
| 20260507082002 | 8 | 24 | 12.9 | 233.4 | 0.00 | 0.00 | 0.00 | 9 | 1005.7 |
| 20260507081002 | 8 | 24 | 12.9 | 233.4 | 0.00 | 0.00 | 0.00 | 9 | 1005.6 |
| 20260507080002 | 8 | 24 | 12.9 | 233.4 | 0.00 | 0.00 | 0.00 | 9 | 1005.6 |
| 20260507075001 | 8 | 24 | 12.9 | 233.4 | 0.00 | 0.00 | 0.00 | 9 | 1005.4 |
| 20260507074002 | 8 | 24 | 12.9 | 233.4 | 0.00 | 0.00 | 0.00 | 9 | 1005.1 |
| 20260507073003 | 8 | 24 | 12.9 | 233.4 | 0.00 | 0.00 | 0.00 | 9 | 1005.2 |
| 20260507072002 | 8 | 352 | 9.7 | 233.4 | 0.00 | 0.00 | 0.00 | 9 | 1005.1 |
| 20260507071004 | 8 | 352 | 9.7 | 1458.1 | 0.00 | 0.00 | 0.00 | 9 | 1005.0 |
| 20260507070003 | 8 | 352 | 9.7 | 906.1 | 0.00 | 0.00 | 0.00 | 9 | 1004.9 |
| 20260507065003 | 8 | 352 | 9.7 | 563.3 | 0.00 | 0.00 | 0.00 | 9 | 1004.8 |
| 20260507064002 | 8 | 352 | 9.7 | 350.8 | 0.00 | 0.00 | 0.00 | 9 | 1004.9 |
| 20260507063007 | 8 | 352 | 9.7 | 350.8 | 0.00 | 0.00 | 0.00 | 9 | 1004.8 |
| 20260507062002 | 8 | 350 | 11.3 | 218.9 | 0.00 | 0.00 | 0.00 | 9 | 1004.6 |
| 20260507061002 | 8 | 350 | 11.3 | 136.8 | 0.00 | 0.00 | 0.00 | 9 | 1004.5 |
| 20260507060002 | 8 | 350 | 11.3 | 85.3 | 0.00 | 0.00 | 0.00 | 9 | 1004.4 |
| 20260507055002 | 8 | 350 | 11.3 | 85.3 | 0.00 | 0.00 | 0.00 | 9 | 1004.3 |
| 20260507054002 | 8 | 350 | 11.3 | 53.1 | 0.00 | 0.00 | 0.00 | 9 | 1004.3 |
| 20260507053003 | 8 | 350 | 11.3 | 53.1 | 0.00 | 0.00 | 0.00 | 9 | 1004.2 |
| 20260507052002 | 8 | 359 | 9.7 | 33.8 | 0.00 | 0.00 | 0.00 | 9 | 1004.2 |
| 20260507051002 | 8 | 359 | 9.7 | 225.3 | 0.00 | 0.00 | 0.00 | 9 | 1004.1 |
| 20260507050002 | 8 | 359 | 9.7 | 225.3 | 0.00 | 0.00 | 0.00 | 9 | 1004.1 |
| 20260507045002 | 8 | 359 | 9.7 | 225.3 | 0.00 | 0.00 | 0.00 | 9 | 1004.0 |
| 20260507044002 | 8 | 359 | 9.7 | 225.3 | 0.00 | 0.00 | 0.00 | 9 | 1003.9 |
| 20260507043002 | 8 | 359 | 9.7 | 225.3 | 0.00 | 0.00 | 0.00 | 9 | 1003.7 |
| 20260507042003 | 8 | 357 | 9.7 | 225.3 | 0.00 | 0.00 | 0.00 | 9 | 1003.7 |
| 20260507041002 | 8 | 357 | 9.7 | 225.3 | 0.00 | 0.00 | 0.00 | 9 | 1003.5 |
| 20260507040002 | 8 | 357 | 9.7 | 1403.3 | 0.00 | 0.00 | 0.00 | 9 | 1003.4 |
| 20260507035002 | 8 | 357 | 9.7 | 1403.3 | 0.00 | 0.00 | 0.00 | 9 | 1003.3 |
| 20260507034003 | 8 | 357 | 9.7 | 872.3 | 0.00 | 0.00 | 0.00 | 9 | 1003.2 |
| 20260507033001 | 8 | 357 | 9.7 | 542.3 | 0.00 | 0.00 | 0.00 | 9 | 1003.1 |
| 20260507032003 | 8 | 357 | 9.7 | 542.3 | 0.00 | 0.00 | 0.00 | 9 | 1002.8 |
| 20260507031001 | 8 | 354 | 9.7 | 338.0 | 0.00 | 0.00 | 0.00 | 9 | 1002.8 |
| 20260507030004 | 8 | 354 | 9.7 | 210.8 | 0.00 | 0.00 | 0.00 | 9 | 1002.9 |
| 20260507025002 | 8 | 354 | 9.7 | 132.0 | 0.00 | 0.00 | 0.00 | 9 | 1002.8 |
| 20260507024002 | 8 | 354 | 9.7 | 82.1 | 0.00 | 0.00 | 0.00 | 9 | 1002.5 |